Location: Pic du Midi - T1M
(42.9366°N, 0.1426°E)
Time: 11:26:30
(UTC+01:00)

X-37B - Pass Details

Date: 26 June 2021
Orbit: 383 x 392 km, 45.0° (Epoch: 01 July)

Event Time Altitude Azimuth Distance (km) Brightness Sun altitude
Rises 00:20:55 0° 282° (WNW) 2,248 4.7 -23.0°
Reaches altitude 10° 00:22:59 10° 286° (WNW) 1,395 3.7 -23.1°
Enters shadow 00:24:02 19° 290° (WNW) 981 2.9 -23.1°
